Torna al catalogo

ANTIE 03

AttivoScienzaSSO
NORAD 69541·PAYLOAD·🇨🇳 China
Questo nome del satellite non è ancora stato confermato da fonti ufficiali.

Lanciato Jun 15, 2026 da Jiuquan Satellite Launch Center

Loading…

Prossimi Passaggi (prossime 24 ore)

TLE

AggiornatoSource: Space-Track

Epoca: Sep 14, 2026, 03:12 UTC

1 69541U 26134D   26257.13335100  .00004114  00000-0  26189-3 0  9998
2 69541  97.6959 327.6414 0019497 332.2350  27.7836 15.09195004 13727

Traccia ANTIE 03 in tempo reale con AllMySat

Download on the App Store